Volver al catálogo

ONEWEB-0109

ActivoComunicacionesPO
NORAD 47259·PAYLOAD·🇬🇧 United Kingdom

Lanzado Dec 18, 2020 desde Vostochny Cosmodrome

Loading…

Próximos Pases (próximas 24 horas)

TLE

ActualizadoSource: CelesTrak SupGP

Época: Sep 14, 2026, 15:48 UTC

1 47259C 20100B   26257.65849949  .00002320  00000+0  64550-2 0  2571
2 47259  87.8998 332.9007 0001738  99.0506 325.4699 13.12446906    15

Sigue ONEWEB-0109 en tiempo real con AllMySat

Download on the App Store